Location: Unspecified
(43.3830°N, 0.0000°E)
Time: 23:47:45
(UTC+00:00)

deb Explorer IX - Visible Passes

Search period start: 23 October 2020 00:00
Search period end: 02 November 2020 00:00
Orbit: 537 x 1106 km, 38.8° (Epoch: 23 October)

Date Brightness Start Highest point End Pass type
(mag) Time Alt. Az. Time Alt. Az. Time Alt. Az.
23 Oct ? 05:26:11 10° SSE 05:29:02 13° SE 05:31:58 10° ESE visible
24 Oct ? 05:03:07 10° SSE 05:05:45 13° SE 05:08:29 10° ESE visible
25 Oct ? 04:40:05 10° SSE 04:42:28 12° SE 04:44:58 10° ESE visible
26 Oct ? 04:17:06 10° SSE 04:19:12 12° SE 04:21:25 10° ESE visible
27 Oct ? 03:54:11 10° SSE 03:55:58 11° SE 03:57:48 10° ESE visible
27 Oct ? 05:36:17 10° SW 05:41:49 35° SSE 05:48:01 10° E visible
28 Oct ? 03:31:20 10° SSE 03:32:43 11° SE 03:34:08 10° ESE visible
28 Oct ? 05:13:10 10° SW 05:18:32 34° SSE 05:24:36 10° E visible
29 Oct ? 03:09:15 10° SE 03:09:29 10° SE 03:10:16 10° SE visible
29 Oct ? 04:50:34 12° SW 04:55:16 34° SSE 05:01:10 10° E visible
30 Oct ? 04:29:01 21° SSW 04:32:00 33° SSE 04:37:45 10° E visible
31 Oct ? 04:07:24 29° S 04:08:45 32° SSE 04:14:19 10° E visible
31 Oct ? 05:49:30 10° WSW 05:55:19 56° S 06:02:02 10° E visible
01 Nov ? 03:45:41 31° SSE 03:45:41 31° SSE 03:50:54 10° E visible
01 Nov ? 05:27:00 13° WSW 05:32:03 56° S 05:38:36 10° E visible
